[[{"header":{"parameterUnit":"m.s-1","parameterCategory":1,"la1":30.2992,"la2":30.254,"lo1":-89.0895,"lo2":-89.0443,"dy":0.0025,"dx":0.0025,"nx":19,"ny":19,"refTime":"2026-05-10T03:00:00:Z","depth":0,"parameterNumber":2,"parameterNumberName":"U-component_of_WINDS"},"data":[0,0,0,1.0829,1.0832,1.0954,1.0954,1.1133,1.1135,0,0,0,0,0,0,0,0,0,0,0,1.0804,1.0805,1.0829,1.0832,1.0954,1.0954,1.1133,1.1135,0,0,0,0,0,0,0,0,0,0,0,1.0803,1.0805,1.0807,1.0833,1.0954,1.0954,1.1133,1.1033,0,0,0,0,0,0,0,0,0,0,1.0911,1.0898,1.0804,1.0807,1.0833,1.0954,1.0954,1.1028,1.1039,1.1087,0,1.1129,0,1.1135,1.1148,1.1149,0,0,0,1.0825,1.0888,1.0911,1.0807,1.0834,1.0954,1.0897,1.1034,1.1047,1.1102,1.1132,1.1138,1.1138,1.115,1.1151,1.1441,1.1442,0,0,1.0818,1.0833,1.0902,1.092,1.0899,1.0893,1.0901,1.1042,1.1076,1.1132,1.1142,1.1141,1.1151,1.1152,1.1439,1.1441,0,0,0,1.0804,1.0828,1.0847,1.0913,1.0933,1.0897,1.0906,1.107,1.1075,1.1143,1.1143,1.1152,1.1155,1.1437,1.144,1.1538,0,0,0,1.0799,1.0819,1.0844,1.0854,1.093,1.1002,1.0931,1.1065,1.108,1.1142,1.1152,1.1156,1.1435,1.1439,1.1531,1.1584,0,0,0,1.0792,1.0819,1.0839,1.0855,1.0907,1.1,1.1012,1.1068,1.1081,1.1149,1.1157,1.1434,1.1438,1.1525,1.1574,1.1666,0,0,0,1.079,1.0926,1.0841,1.0993,1.0906,1.1057,1.1011,1.1123,1.1194,1.1153,1.1436,1.144,1.1523,1.1567,1.1659,1.1748,1.1785,0,0,1.097,1.0948,1.1037,1.0964,1.1134,1.1037,1.1222,1.1275,1.127,1.1385,1.1392,1.1533,1.1573,1.1664,1.1982,1.2012,0,0,0,1.1099,1.1163,1.1204,1.127,1.1311,1.1351,1.1373,1.1392,1.1488,1.133,1.1589,1.1612,1.1665,1.1707,1.1733,1.1779,1.1458,1.1458,1.1458,1.1379,1.1361,1.1507,1.1504,1.1568,1.1588,1.164,1.1669,1.1635,1.1696,1.1732,1.1927,1.1976,1.1995,1.2043,1.1774,1.1775,1.1775,1.1775,1.1644,1.1733,1.168,1.1803,1.1785,1.1889,1.1913,1.1884,1.1981,1.1898,1.1945,1.186,1.2028,1.2069,1.1782,1.1781,1.178,1.178,1.1779,1.1829,1.1868,1.1886,1.1979,1.2053,1.2045,1.2139,1.2118,1.21,1.2145,1.2182,1.2181,1.218,1.2163,1.2164,1.2165,1.2165,1.2166,1.2166,1.2015,1.2031,1.2111,1.2164,1.2203,1.2252,1.2271,1.231,1.2349,1.2328,1.2328,1.229,1.2045,1.1986,1.2177,1.2175,1.2174,1.2173,1.2172,1.2298,1.2229,1.2353,1.2392,1.2452,1.2528,1.2498,1.258,1.2609,1.2656,1.2606,1.2427,1.2406,1.2385,1.2337,1.2607,1.2607,1.2607,1.2607,1.2456,1.244,1.2563,1.2626,1.2686,1.2672,1.2816,1.2831,1.2838,1.2855,1.2812,1.2745,1.2725,1.2715,1.2688,1.2643,1.2984,1.2984,1.2985,1.2631,1.2619,1.2745,1.2747,1.2791,1.2831,1.2966,1.3045,1.3037,1.3,1.287,1.2854,1.2744,1.2709,1.2674,1.2632,1.2548,0,0]},{"header":{"parameterUnit":"m.s-1","parameterCategory":1,"la1":30.2992,"la2":30.254,"lo1":-89.0895,"lo2":-89.0443,"dy":0.0025,"dx":0.0025,"nx":19,"ny":19,"refTime":"2026-05-10T03:00:00:Z","depth":0,"parameterNumber":3,"parameterNumberName":"V-component_of_WINDS"},"data":[0,0,0,1.3671,1.3672,1.3715,1.3715,1.3785,1.3786,0,0,0,0,0,0,0,0,0,0,0,1.3667,1.3668,1.367,1.3672,1.3715,1.3715,1.3785,1.3786,0,0,0,0,0,0,0,0,0,0,0,1.3667,1.3668,1.3669,1.3672,1.3715,1.3715,1.3785,1.3747,0,0,0,0,0,0,0,0,0,0,1.3702,1.3709,1.3668,1.3669,1.3672,1.3715,1.3715,1.3745,1.3749,1.3772,0,1.3796,0,1.3793,1.3792,1.3792,0,0,0,1.3664,1.3705,1.3708,1.3669,1.3673,1.3715,1.3693,1.3747,1.3752,1.3778,1.3797,1.3799,1.3794,1.3792,1.3793,1.3956,1.3957,0,0,1.3662,1.368,1.3705,1.3712,1.3708,1.3692,1.3695,1.375,1.3771,1.3797,1.3801,1.3795,1.3793,1.3794,1.3955,1.3957,0,0,0,1.366,1.3679,1.368,1.371,1.3717,1.3693,1.3697,1.3769,1.3768,1.3801,1.3796,1.3793,1.3794,1.3954,1.3956,1.4032,0,0,0,1.3658,1.3678,1.3679,1.3691,1.3716,1.3743,1.3715,1.3764,1.3769,1.3795,1.3793,1.3795,1.3953,1.3955,1.4027,1.4066,0,0,0,1.3661,1.3678,1.3688,1.3692,1.3712,1.3742,1.3744,1.3765,1.3767,1.3792,1.3796,1.3952,1.3955,1.4023,1.4058,1.4117,0,0,0,1.3669,1.3753,1.3689,1.378,1.3712,1.3789,1.3743,1.3799,1.383,1.3794,1.3953,1.3956,1.4022,1.4054,1.4112,1.4171,1.4196,0,0,1.3785,1.3767,1.3819,1.3764,1.3858,1.3781,1.3885,1.3895,1.3878,1.3931,1.3935,1.4029,1.4058,1.4116,1.4328,1.4349,0,0,0,1.3862,1.39,1.3921,1.3953,1.3963,1.3976,1.3968,1.3971,1.4016,1.391,1.4063,1.408,1.4113,1.414,1.4158,1.4186,1.3968,1.3968,1.3968,1.4053,1.403,1.4116,1.4099,1.413,1.4122,1.4145,1.4149,1.4114,1.4151,1.4168,1.43,1.4332,1.4345,1.4375,1.4194,1.4194,1.4195,1.4195,1.4222,1.4274,1.4229,1.4296,1.4271,1.4326,1.4322,1.4296,1.4345,1.4285,1.4313,1.4252,1.4368,1.4393,1.42,1.4199,1.4199,1.4198,1.4198,1.4347,1.4368,1.4372,1.4417,1.4454,1.4433,1.4483,1.4457,1.4433,1.446,1.4477,1.4475,1.4473,1.4469,1.447,1.447,1.4471,1.4471,1.4471,1.4475,1.4478,1.4524,1.4544,1.4562,1.4583,1.4576,1.4593,1.4605,1.4582,1.4582,1.4547,1.4383,1.4345,1.4478,1.4477,1.4476,1.4476,1.4475,1.466,1.4615,1.4686,1.4705,1.4727,1.4767,1.4733,1.4771,1.478,1.4806,1.4764,1.4647,1.4626,1.4612,1.458,1.4767,1.4767,1.4767,1.4767,1.4767,1.4754,1.4823,1.4855,1.4883,1.4861,1.4943,1.4939,1.4927,1.4932,1.4901,1.4855,1.4842,1.483,1.4811,1.4781,1.5014,1.5015,1.5015,1.4881,1.487,1.4945,1.4935,1.4951,1.4966,1.5043,1.5081,1.5058,1.5024,1.4937,1.4926,1.4852,1.4828,1.4795,1.4767,1.4711,0,0]}]]